[[{"header":{"parameterUnit":"m.s-1","parameterCategory":1,"la1":30.2991,"la2":30.254,"lo1":-89.0895,"lo2":-89.0444,"dy":0.0017,"dx":0.0017,"nx":28,"ny":28,"refTime":"2024-07-31T03:00:00:Z","depth":0,"parameterNumber":2,"parameterNumberName":"U-component_of_WINDS"},"data":[0,0,0,0,0,0,0,0,0,0,0,0,0,0,0,0,0,0,0,0,0,0,0,0,0,0,0,0,0,0,0,0,0,0,0,0,0,0,0,0,0,0,0,0,0,0,0,0,0,0,0,0,0,0,0,0,0,0,1.7885,1.7886,0,1.7975,1.7976,1.7977,1.7962,1.796,1.7959,1.7957,1.8055,1.8059,1.8063,0,0,0,0,0,0,0,0,0,0,0,0,0,1.7706,1.7709,1.7885,1.7886,1.7888,1.7975,1.7976,1.7977,1.7962,1.796,1.7958,1.7956,1.8053,1.8058,1.8063,0,0,0,0,0,0,0,0,0,0,0,0,0,1.7788,1.771,1.7885,1.789,1.7892,1.7975,1.7976,1.7978,1.7962,1.796,1.7958,1.7955,1.8052,1.8058,1.8064,1.8149,0,0,1.8083,1.8085,0,0,0,0,0,0,0,0,1.7784,1.7795,1.7888,1.789,1.7892,1.7955,1.7949,1.8036,1.7963,1.7936,1.7957,1.7954,1.8024,1.8032,1.8054,1.8154,1.8158,1.8083,1.8087,1.8089,1.8091,0,0,0,0,0,0,0,1.7778,1.7791,1.7921,1.789,1.7892,1.789,1.7899,1.7965,1.7992,1.7938,1.7937,1.7948,1.8024,1.8048,1.8057,1.8159,1.8083,1.8088,1.8092,1.8095,1.8334,1.8336,0,0,0,0,0,0,1.777,1.7786,1.7918,1.7924,1.7831,1.7895,1.7905,1.7937,1.7991,1.7997,1.7949,1.7946,1.8039,1.8049,1.806,1.8163,1.8089,1.8095,1.8099,1.8331,1.8334,1.8337,0,0,0,0,0,0,1.7766,1.7782,1.7915,1.7855,1.7872,1.79,1.7936,1.794,1.7964,1.8,1.8005,1.7969,1.8038,1.8051,1.8127,1.8167,1.8098,1.8103,1.8328,1.8332,1.8336,1.8371,0,0,0,0,0,0,1.7761,1.7781,1.7812,1.7856,1.7875,1.7978,1.7939,1.7943,1.7974,1.7971,1.802,1.8025,1.8037,1.8118,1.8133,1.8174,1.8108,1.8325,1.833,1.8335,1.8366,1.8376,1.8384,0,0,0,0,0,1.7755,1.782,1.7814,1.783,1.7914,1.7981,1.7992,1.8002,1.7977,1.801,1.8033,1.8024,1.816,1.8126,1.8143,1.8186,1.8322,1.8328,1.8334,1.8363,1.8374,1.8383,0,0,0,0,0,0,1.7782,1.7825,1.7819,1.79,1.7936,1.7978,1.8019,1.8014,1.806,1.8055,1.8067,1.8079,1.8155,1.8178,1.8139,1.8271,1.8238,1.8247,1.8253,1.8265,1.8273,1.8266,1.8113,0,0,0,0,0,1.7797,1.7845,1.7881,1.7949,1.7968,1.799,1.802,1.8024,1.8063,1.8079,1.8108,1.8148,1.8199,1.8233,1.8283,1.837,1.838,1.8408,1.8417,1.8423,1.8432,1.8479,1.8492,1.8357,1.8357,1.8357,0,0,1.7829,1.7859,1.7889,1.7955,1.7984,1.8036,1.8004,1.8059,1.8098,1.8088,1.8161,1.8183,1.8229,1.831,1.8348,1.8332,1.8471,1.8431,1.8436,1.8441,1.8487,1.85,1.8511,1.8361,1.8361,1.836,0,0,1.7914,1.7941,1.8,1.8029,1.8073,1.8087,1.8102,1.8144,1.8158,1.823,1.8224,1.8271,1.836,1.8392,1.8421,1.8518,1.8511,1.8534,1.8579,1.8625,1.8636,1.8645,1.868,1.8692,1.8542,1.8542,1.8542,0,1.7949,1.8024,1.8032,1.8088,1.8118,1.8109,1.817,1.8199,1.8257,1.8279,1.826,1.837,1.8401,1.8489,1.8513,1.8536,1.8553,1.8528,1.8633,1.8643,1.8652,1.8685,1.8698,1.8544,1.8544,1.8544,1.8544,0,1.8065,1.8118,1.8161,1.8215,1.825,1.8308,1.8326,1.836,1.8362,1.8379,1.8454,1.8489,1.8546,1.8567,1.857,1.8657,1.8646,1.863,1.8596,1.8667,1.8698,1.8711,1.8548,1.8547,1.8546,1.8546,0,0,1.8169,1.8227,1.8242,1.8267,1.8314,1.8356,1.8414,1.8468,1.8497,1.8538,1.8588,1.8663,1.8648,1.868,1.8687,1.8728,1.8802,1.8707,1.8708,1.8723,1.89,1.8911,1.8925,1.8798,1.88,1.8802,1.8896,0,1.8258,1.8359,1.8368,1.846,1.8509,1.8502,1.8553,1.8588,1.8606,1.8652,1.8672,1.8725,1.8702,1.8721,1.8761,1.8784,1.8838,1.8778,1.8846,1.8848,1.8834,1.8942,1.8954,1.904,1.8908,1.891,1.8912,0,1.8376,1.8418,1.8514,1.8554,1.8575,1.862,1.867,1.8713,1.8754,1.8764,1.8799,1.88,1.8862,1.8826,1.8911,1.887,1.8899,1.8915,1.8918,1.8925,1.8884,1.8951,1.9068,1.9081,1.8931,1.893,1.8928,0,1.8442,1.8523,1.859,1.8612,1.866,1.8693,1.8715,1.8753,1.8784,1.8828,1.8849,1.89,1.8929,1.8969,1.8985,1.8957,1.907,1.9035,1.908,1.908,1.9104,1.9103,1.9227,1.9123,1.9123,1.9123,1.9123,0,1.854,1.8599,1.8621,1.8662,1.8729,1.8739,1.8805,1.8825,1.8859,1.8906,1.8904,1.8948,1.8966,1.9013,1.9026,1.9095,1.9108,1.9119,1.9121,1.9119,1.9117,1.9137,1.9132,1.9126,1.9126,1.9125,1.9124,0,1.8625,1.8642,1.8715,1.8755,1.8766,1.8813,1.8848,1.8889,1.8906,1.8965,1.898,1.9007,1.9062,1.9082,1.915,1.9159,1.9239,1.9237,1.9224,1.9225,1.9269,1.9265,1.9411,1.943,1.9314,1.9315,1.9316,0,1.8686,1.8731,1.8775,1.8805,1.8828,1.8877,1.8909,1.8921,1.8955,1.9004,1.9039,1.9094,1.9138,1.9228,1.9255,1.9307,1.9306,1.9354,1.9314,1.931,1.9307,1.9303,1.9308,1.9361,1.9362,1.9363,1.9364,0,1.8793,1.8799,1.8844,1.8892,1.8929,1.8968,1.9006,1.9031,1.9049,1.9087,1.9143,1.9177,1.9246,1.9301,1.9354,1.9378,1.9375,1.9376,1.939,1.9387,1.9378,1.9383,1.9244,1.9373,1.9372,1.9371,1.9371,1.9371,1.8868,1.8908,1.8945,1.8995,1.9024,1.9059,1.9099,1.9121,1.9167,1.9222,1.9228,1.9288,1.9328,1.9399,1.9426,1.9474,1.9461,1.948,1.9485,1.9489,1.9492,1.937,1.9484,1.9484,1.9483,1.9483,1.9483,0,1.8975,1.8998,1.9044,1.9096,1.9136,1.9127,1.9168,1.9202,1.9255,1.9292,1.9335,1.9399,1.9452,1.9483,1.9536,1.9569,1.9569,1.9583,1.958,1.9586,1.9501,1.9484,1.9582,1.9582,1.9582,1.9582,1.9582,1.9582,1.9035,1.9101,1.9112,1.9193,1.9216,1.9274,1.9298,1.9331,1.936,1.9431,1.9475,1.9494,1.9528,1.9584,1.9633,1.964,1.966,1.9675,1.9682,1.9602,1.9592,1.9582,1.9566,1.968,1.968,1.9762,1.9763,1.9764]},{"header":{"parameterUnit":"m.s-1","parameterCategory":1,"la1":30.2991,"la2":30.254,"lo1":-89.0895,"lo2":-89.0444,"dy":0.0017,"dx":0.0017,"nx":28,"ny":28,"refTime":"2024-07-31T03:00:00:Z","depth":0,"parameterNumber":3,"parameterNumberName":"V-component_of_WINDS"},"data":[0,0,0,0,0,0,0,0,0,0,0,0,0,0,0,0,0,0,0,0,0,0,0,0,0,0,0,0,0,0,0,0,0,0,0,0,0,0,0,0,0,0,0,0,0,0,0,0,0,0,0,0,0,0,0,0,0,0,3.6791,3.6793,0,3.6904,3.6905,3.6907,3.6909,3.6907,3.6906,3.6905,3.7015,3.702,3.7024,0,0,0,0,0,0,0,0,0,0,0,0,0,3.657,3.6574,3.6791,3.6793,3.6794,3.6904,3.6905,3.6907,3.6909,3.6907,3.6906,3.6904,3.7014,3.7019,3.7024,0,0,0,0,0,0,0,0,0,0,0,0,0,3.6672,3.6575,3.6791,3.6808,3.6811,3.6904,3.6906,3.6907,3.6909,3.6907,3.6905,3.6903,3.7012,3.7019,3.7025,3.7106,0,0,3.7044,3.7047,0,0,0,0,0,0,0,0,3.6667,3.6681,3.6804,3.6807,3.6811,3.689,3.6868,3.6974,3.691,3.6872,3.6905,3.6902,3.6975,3.6984,3.701,3.7111,3.7116,3.7045,3.7049,3.7052,3.7053,0,0,0,0,0,0,0,3.666,3.6676,3.6836,3.6806,3.681,3.6808,3.682,3.6888,3.6934,3.6875,3.6876,3.6889,3.6976,3.7004,3.7013,3.7118,3.7045,3.705,3.7054,3.7057,3.7285,3.7287,0,0,0,0,0,0,3.665,3.667,3.6832,3.6839,3.6732,3.6814,3.6827,3.6867,3.6933,3.6941,3.6891,3.6889,3.6994,3.7005,3.7017,3.7112,3.7052,3.7057,3.7061,3.7282,3.7285,3.7287,0,0,0,0,0,0,3.6645,3.6664,3.6828,3.6755,3.6775,3.682,3.6864,3.687,3.6898,3.6945,3.6952,3.6911,3.6993,3.7008,3.7083,3.7116,3.706,3.7066,3.728,3.7283,3.7286,3.7306,0,0,0,0,0,0,3.6639,3.6663,3.6696,3.6755,3.6779,3.6895,3.6866,3.6874,3.6909,3.6908,3.6966,3.6974,3.6992,3.7073,3.7089,3.7124,3.7071,3.7277,3.7281,3.7285,3.7302,3.7309,3.7315,0,0,0,0,0,3.6631,3.6698,3.6698,3.6718,3.6822,3.6897,3.691,3.6932,3.6912,3.6944,3.6974,3.6972,3.711,3.7081,3.7099,3.7136,3.7275,3.728,3.7285,3.7299,3.7308,3.7315,0,0,0,0,0,0,3.6641,3.6706,3.6707,3.6795,3.684,3.6897,3.6939,3.6941,3.6991,3.6988,3.7011,3.7024,3.7097,3.7125,3.7091,3.7215,3.719,3.7199,3.7194,3.7203,3.7209,3.72,3.7076,0,0,0,0,0,3.6653,3.671,3.6763,3.6836,3.6858,3.6894,3.6928,3.694,3.6987,3.7006,3.7041,3.7085,3.7138,3.7172,3.7224,3.7306,3.7316,3.734,3.7347,3.7352,3.7358,3.7398,3.7408,3.7304,3.7304,3.7304,0,0,3.668,3.6722,3.6757,3.6839,3.6875,3.693,3.6911,3.6971,3.7011,3.7015,3.7087,3.7114,3.7164,3.7242,3.7278,3.7266,3.7389,3.7358,3.7362,3.7366,3.7405,3.7414,3.7423,3.7307,3.7307,3.7306,0,0,3.6755,3.6795,3.6857,3.6894,3.6949,3.6972,3.6986,3.7042,3.706,3.7133,3.7135,3.7182,3.7274,3.7308,3.7337,3.742,3.7419,3.7437,3.747,3.7509,3.7517,3.7524,3.755,3.7559,3.7443,3.7443,3.7444,0,3.6781,3.6866,3.6889,3.6948,3.6982,3.6988,3.7049,3.7082,3.7151,3.7173,3.7159,3.7271,3.7306,3.7389,3.7409,3.7434,3.7448,3.743,3.7514,3.7522,3.7529,3.7553,3.7563,3.7445,3.7445,3.7445,3.7445,0,3.6892,3.695,3.6994,3.7059,3.7098,3.7158,3.7187,3.7223,3.7231,3.7254,3.7325,3.7366,3.7424,3.7445,3.7454,3.7528,3.7519,3.751,3.7485,3.754,3.7563,3.7573,3.7447,3.7447,3.7446,3.7446,0,0,3.6979,3.7053,3.7069,3.7096,3.7155,3.72,3.7258,3.7315,3.7343,3.7389,3.7435,3.7511,3.7501,3.7534,3.7547,3.7581,3.7638,3.7567,3.7569,3.7576,3.7717,3.7721,3.7732,3.7638,3.764,3.7642,3.7711,0,3.7057,3.7162,3.7182,3.7272,3.7323,3.7328,3.7377,3.7417,3.7439,3.7484,3.7507,3.7559,3.7545,3.7564,3.7599,3.7624,3.7666,3.762,3.7678,3.768,3.7663,3.7745,3.7751,3.7815,3.7721,3.7723,3.7724,0,3.7165,3.7212,3.7307,3.7355,3.7377,3.7422,3.7472,3.7517,3.756,3.7573,3.7608,3.7615,3.7671,3.7644,3.7719,3.7687,3.7711,3.7727,3.773,3.7734,3.7704,3.7748,3.7837,3.7845,3.7739,3.7738,3.7737,0,3.7213,3.7301,3.7368,3.7392,3.745,3.748,3.7506,3.7547,3.7578,3.7622,3.7642,3.7692,3.7718,3.7755,3.7774,3.7753,3.7846,3.7822,3.7855,3.7854,3.7873,3.7871,3.7963,3.7894,3.7893,3.7893,3.7893,0,3.7297,3.7354,3.739,3.7431,3.7492,3.7513,3.7573,3.7598,3.7634,3.7676,3.7683,3.7723,3.7747,3.7789,3.7804,3.7861,3.7874,3.7883,3.7886,3.7881,3.7879,3.7896,3.7891,3.7896,3.7895,3.7895,3.7894,0,3.7362,3.7389,3.7461,3.7509,3.7522,3.7565,3.7605,3.7643,3.7664,3.7718,3.7732,3.7764,3.7813,3.7836,3.7897,3.7907,3.797,3.7972,3.7956,3.7956,3.7987,3.7983,3.8091,3.8105,3.8028,3.8029,3.803,0,3.7413,3.7456,3.7509,3.7538,3.7564,3.7612,3.7643,3.7664,3.7696,3.7746,3.7776,3.7826,3.7867,3.7944,3.7972,3.8017,3.8017,3.8052,3.8024,3.8016,3.8013,3.801,3.8012,3.8057,3.8057,3.8058,3.8058,0,3.7499,3.7509,3.7555,3.7604,3.7641,3.7681,3.7719,3.7742,3.7768,3.7803,3.7854,3.7885,3.7946,3.7994,3.804,3.8063,3.8064,3.8067,3.8076,3.8071,3.8059,3.8062,3.7967,3.8064,3.8064,3.8063,3.8063,3.8063,3.7556,3.7593,3.7634,3.7683,3.7714,3.7749,3.7786,3.781,3.7853,3.7905,3.7914,3.7967,3.8004,3.8066,3.8091,3.813,3.8121,3.8136,3.8139,3.8142,3.8142,3.8054,3.8139,3.8139,3.8139,3.8138,3.8138,0,3.7639,3.7665,3.7711,3.7764,3.7801,3.7799,3.7841,3.7871,3.7918,3.7953,3.7992,3.8048,3.8093,3.8123,3.8167,3.8193,3.8193,3.8203,3.82,3.8205,3.8149,3.8134,3.8201,3.8201,3.8201,3.8201,3.8201,3.8201,3.7687,3.7748,3.7762,3.7836,3.7862,3.7914,3.7937,3.7967,3.7995,3.8057,3.8094,3.8114,3.8145,3.8192,3.8231,3.8239,3.8253,3.8263,3.8269,3.8216,3.8209,3.8203,3.8189,3.8267,3.8267,3.8321,3.8322,3.8322]}]]